Location: Contre
(49.7477°N, 2.0963°E)
Time: 12:59:31
(UTC+00:00)

Meteor 2-12 Rocket - Pass Details

Date: 18 November 2025
Orbit: 935 x 957 km, 82.5° (Epoch: 05 December)

Event Time Altitude Azimuth Distance (km) Brightness Sun altitude
Rises 18:45:40 0° 340° (NNW) 3,625 7.7 -25.7°
Reaches altitude 10° 18:48:39 10° 327° (NNW) 2,672 7.2 -26.2°
Maximum altitude 18:53:17 23° 278° (W) 1,877 6.7 -26.9°
Drops below altitude 10° 18:57:53 10° 228° (SW) 2,647 7.3 -27.7°
Sets 19:00:50 0° 214° (SW) 3,584 7.9 -28.2°
